WESTFORD NEEDLES, 2377

Orbit data source: Space-Track

WESTFORD NEEDLES, 2377 is space debris in LEO originally from a launch on Thu, 09 May 1963 UTC launched from the Air Force Western Test Range (AFWTR). Debris objects in space refer to the collection of defunct objects orbiting the Earth. Examples of debris include non-operational satellites, rocket bodies, and fragments generated from explosions, collisions, or faulty payload assembly.

Loading next visibility...
Identifier
2377, 1963-014X
Orbit
LEO
Country
Flag of USUS
Related business
Manufacturer
Unknown
Mission
Spacecraft
Bus & Motor
Unknown
Mass
Unknown
Launch date (UTC)
1963-05-09 (62 years ago)
Launch vehicle
Unknown
Launch site
Air Force Western Test Range (AFWTR)
Object type
Payload
Rocket body
Debris
Shape & HBR
Unknown shape, 0.4 m
Radar Cross Section
Medium (>0.1 m² and <1 m²)

Expand to show TLE details & history
Last TLE update: 3 days ago

TLE from 3 days ago
0 WESTFORD NEEDLES
1 02377U 63014X   25304.61861514 -.00000890  00000-0 -35415+0 0  9995
2 02377  87.3699 185.6887 0512037 164.1562 197.5993  8.68700447906168
Epoch: 2025-10-31T14:50Z
TLE epoch observation values (Epoch: 2025-10-31T14:50:48.348Z)
Latitude
-0.00001°
Longitude
-77.17321°
Altitude
4,110.122 km
Speed
6.012 km/s
True Right ascension
12h 22m 45s
True Declination
0° 00' 00"
Sunlit
Object was in daylight at epoch
Visualization orbit readout
Latitude
Unknown
Longitude
Unknown
Altitude
Unknown
Speed
Unknown
Apparent Right ascension
Unknown
Apparent Declination
Unknown
Sunlit
N/A
Visualization observer readout
Local Sidereal Time
11:46:59
Azimuth
Unknown
Elevation
Unknown
Doppler factor
Unknown
Orbital elements
Apogee altitude
4,127.284 km
Perigee altitude
3,103.855 km
Semi-major axis
9,993.707 km
Eccentricity
0.0512
Inclination
87.3699°
RAAN
185.6887°
Arg. of periapsis
164.1562°
True anomaly
195.92767°
Mean anomaly
197.5993°
Eccentric anomaly
196.75362°
Mean motion
2.17247 °/min
Orbital period
165.71 mins
BSTAR
-0.35415
Loading maneuver chart data...
Computing Atmospheric mass density...

Documentation

Showing up to 5 results
|